CW8164 Weather Reports


Display with metric or nautical units.
time (UTC)temp
F
wind
direction
speed
MPH
gust
MPH
rain 1hr
in
rain 24hr
in
rain mn
in
humidity
%
barometer
mb
20260503013403 75 264 0.0 0.0 0.00 0.03 0.03 59 1010.7
20260503012903 75 152 0.0 0.0 0.00 0.03 0.03 60 1010.8
20260503012404 75 24 0.0 0.0 0.00 0.03 0.03 59 1010.7
20260503011903 75 19 0.0 0.0 0.00 0.03 0.03 55 1010.8
20260503011404 75 254 0.0 0.0 0.00 0.03 0.03 58 1010.8
20260503010903 76 241 0.0 0.0 0.00 0.03 0.03 56 1010.8
20260503010403 76 268 0.0 0.0 0.00 0.03 0.03 56 1010.8
20260503005403 75 234 0.0 0.0 0.00 0.03 0.03 59 1010.8
20260503004904 75 221 0.0 0.0 0.00 0.03 0.03 60 1010.9
20260503004404 75 259 0.0 0.0 0.00 0.03 0.03 60 1010.9
20260503003903 75 235 0.0 2.0 0.00 0.03 0.03 58 1010.9
20260503002903 75 219 0.0 2.0 0.00 0.03 0.03 58 1010.9
20260503001903 75 249 0.0 2.0 0.00 0.03 0.03 58 1010.9
20260503001403 75 335 0.0 2.0 0.00 0.03 0.03 58 1010.9
20260503000903 75 276 0.0 2.0 0.00 0.03 0.03 58 1010.9
20260503000403 74 235 0.0 2.0 0.00 0.03 0.03 58 1010.9
20260502235904 74 234 0.0 3.0 0.00 0.03 0.03 58 1011.0
20260502234904 74 201 0.0 3.0 0.00 0.03 0.03 58 1011.0
20260502233903 74 244 0.0 3.0 0.00 0.03 0.03 58 1011.2
20260502233404 74 232 0.0 3.0 0.00 0.03 0.03 58 1011.2
20260502232903 74 283 0.0 2.0 0.00 0.03 0.03 59 1011.3
20260502232404 74 288 0.0 2.0 0.00 0.03 0.03 60 1011.4
20260502231904 73 33 0.0 2.0 0.00 0.03 0.03 60 1011.4
20260502231404 73 265 0.0 2.0 0.00 0.03 0.03 61 1011.4
20260502230903 73 53 0.0 2.0 0.00 0.03 0.03 61 1011.5
20260502230404 73 229 0.0 2.0 0.00 0.03 0.03 60 1011.7
20260502225903 73 281 0.0 3.0 0.00 0.03 0.03 60 1011.8
20260502225403 73 321 1.0 3.0 0.00 0.03 0.03 60 1011.8
20260502224904 73 25 0.0 2.0 0.00 0.03 0.03 60 1012.0
20260502224404 72 307 0.0 2.0 0.00 0.03 0.03 60 1012.0
20260502223403 71 31 0.0 2.0 0.00 0.03 0.03 62 1012.2
20260502222903 71 230 0.0 3.0 0.00 0.03 0.03 67 1012.3
20260502222403 71 21 0.0 3.0 0.00 0.03 0.03 64 1012.4
20260502221403 70 240 0.0 2.0 0.00 0.03 0.03 62 1012.5
20260502220903 70 340 0.0 3.0 0.00 0.03 0.03 62 1012.7
20260502220403 70 257 0.0 5.0 0.00 0.03 0.03 63 1012.7
20260502215905 70 260 0.0 5.0 0.00 0.03 0.03 63 1012.7
20260502215404 70 274 0.0 3.0 0.00 0.03 0.03 65 1012.8
20260502214903 69 36 0.0 3.0 0.00 0.03 0.03 63 1012.8
20260502213903 69 175 0.0 5.0 0.00 0.03 0.03 70 1012.9
20260502213404 68 27 1.0 5.0 0.00 0.03 0.03 66 1013.0
20260502212903 67 196 0.0 5.0 0.00 0.03 0.03 66 1013.1
20260502212403 67 255 1.0 5.0 0.00 0.03 0.03 65 1013.2
20260502211904 67 133 1.0 5.0 0.00 0.03 0.03 67 1013.4
20260502211403 67 198 0.0 2.0 0.00 0.03 0.03 67 1013.4
20260502210903 67 266 0.0 6.0 0.00 0.03 0.03 69 1013.6
20260502210403 66 356 1.0 6.0 0.00 0.03 0.03 68 1013.6
20260502205905 66 32 2.0 6.0 0.00 0.03 0.03 68 1013.7
20260502205404 66 292 1.0 6.0 0.00 0.03 0.03 67 1013.8
20260502204903 65 215 0.0 2.0 0.00 0.03 0.03 73 1013.8
20260502204403 65 217 0.0 2.0 0.00 0.03 0.03 69 1013.8
20260502203403 65 109 0.0 3.0 0.00 0.03 0.03 69 1013.9
20260502202904 65 268 0.0 3.0 0.00 0.03 0.03 69 1014.1
20260502202403 65 287 0.0 2.0 0.00 0.03 0.03 70 1014.1
20260502201904 64 59 0.0 2.0 0.00 0.03 0.03 70 1014.0
20260502201403 64 166 0.0 2.0 0.00 0.03 0.03 70 1014.1
20260502200904 64 224 0.0 3.0 0.00 0.03 0.03 72 1014.1
20260502200403 64 289 1.0 5.0 0.00 0.03 0.03 68 1014.2
20260502195904 64 103 0.0 6.0 0.00 0.03 0.03 73 1014.2
20260502195403 64 211 0.0 6.0 0.00 0.03 0.03 72 1014.4
20260502194903 63 194 0.0 5.0 0.00 0.03 0.03 71 1014.5
20260502194404 63 290 1.0 5.0 0.00 0.03 0.03 73 1014.6
20260502193403 62 279 1.0 5.0 0.00 0.03 0.03 72 1014.7
20260502192903 62 193 0.0 5.0 0.00 0.03 0.03 77 1014.7
20260502192403 62 236 0.0 2.0 0.00 0.03 0.03 77 1014.7
20260502191903 61 114 0.0 3.0 0.00 0.03 0.03 77 1014.6
20260502191404 61 259 0.0 3.0 0.00 0.03 0.03 78 1014.8
20260502190904 60 254 1.0 3.0 0.00 0.03 0.03 77 1014.7
20260502185903 59 238 0.0 3.0 0.00 0.03 0.03 83 1014.8
20260502185403 58 238 0.0 3.0 0.00 0.03 0.03 82 1014.8
20260502184904 58 50 0.0 3.0 0.00 0.03 0.03 84 1014.7
20260502184403 57 226 0.0 2.0 0.00 0.03 0.03 82 1015.0
20260502183903 56 84 0.0 5.0 0.00 0.03 0.03 84 1015.1
20260502183404 56 97 0.0 5.0 0.00 0.03 0.03 85 1015.2
20260502182403 56 52 0.0 2.0 0.00 0.03 0.03 84 1015.4
20260502181904 55 119 0.0 2.0 0.00 0.03 0.03 83 1015.4
20260502181404 55 87 0.0 2.0 0.00 0.03 0.03 83 1015.6
20260502180903 55 74 0.0 2.0 0.00 0.03 0.03 85 1015.7
20260502180403 55 109 0.0 3.0 0.00 0.03 0.03 84 1015.8
20260502163904 52 13 0.0 0.0 0.00 0.03 0.03 88 1016.0
20260502163403 52 34 0.0 0.0 0.00 0.03 0.03 88 1016.0
20260502162904 52 38 0.0 0.0 0.00 0.03 0.03 88 1015.9
20260502162403 52 266 0.0 0.0 0.00 0.03 0.03 88 1015.9
20260502161904 52 252 0.0 0.0 0.00 0.03 0.03 89 1015.9
20260502161403 52 242 0.0 0.0 0.00 0.03 0.03 90 1016.0
20260502160903 52 240 0.0 0.0 0.00 0.03 0.03 89 1016.0
20260502151904 51 190 0.0 0.0 0.01 0.03 0.03 90 1016.1
20260502151403 51 165 0.0 0.0 0.01 0.03 0.03 90 1016.1
20260502150904 51 90 0.0 0.0 0.01 0.03 0.03 91 1016.2
20260502150404 51 80 0.0 0.0 0.01 0.03 0.03 90 1016.1
20260502130403 50 70 0.0 0.0 0.00 0.02 0.02 93 1015.6
20260502123404 50 36 0.0 0.0 0.00 0.02 0.02 92 1015.6
20260502122904 50 65 0.0 0.0 0.00 0.02 0.02 92 1015.6
20260502122403 50 41 0.0 0.0 0.00 0.02 0.02 93 1015.6
20260502121903 50 20 0.0 0.0 0.00 0.02 0.02 93 1015.7
20260502121403 50 327 0.0 0.0 0.00 0.02 0.02 93 1015.8
20260502120904 50 205 0.0 0.0 0.00 0.02 0.02 93 1015.7
20260502120403 50 205 0.0 0.0 0.00 0.02 0.02 93 1015.8
20260502115903 50 205 0.0 0.0 0.00 0.02 0.02 93 1015.8
20260502115404 50 202 0.0 0.0 0.00 0.02 0.02 93 1015.6
20260502114904 50 186 0.0 0.0 0.00 0.02 0.02 93 1015.4
20260502114404 50 185 0.0 0.0 0.00 0.02 0.02 93 1015.4
20260502113903 50 259 0.0 0.0 0.00 0.02 0.02 93 1015.3
20260502113403 50 251 0.0 0.0 0.00 0.02 0.02 93 1015.4
20260502112904 49 239 0.0 0.0 0.00 0.02 0.02 93 1015.5
20260502112403 49 237 0.0 0.0 0.00 0.02 0.02 93 1015.6
20260502111403 49 237 0.0 0.0 0.00 0.02 0.02 93 1015.5
20260502110404 49 237 0.0 0.0 0.00 0.02 0.02 92 1015.4
20260502105904 50 237 0.0 0.0 0.00 0.02 0.02 92 1015.4
20260502105403 50 234 0.0 0.0 0.00 0.02 0.02 92 1015.6
20260502104903 50 216 0.0 0.0 0.00 0.02 0.02 92 1015.6
20260502104404 50 138 0.0 0.0 0.00 0.02 0.02 92 1015.6
20260502102904 50 42 0.0 0.0 0.00 0.02 0.02 92 1015.6
20260502102404 50 68 0.0 0.0 0.00 0.02 0.02 92 1015.8
20260502101903 50 68 0.0 0.0 0.00 0.02 0.02 92 1015.8
20260502101403 50 82 0.0 0.0 0.00 0.02 0.02 92 1015.8
20260502100903 50 54 0.0 0.0 0.00 0.02 0.02 91 1015.9
20260502100405 50 62 0.0 0.0 0.01 0.02 0.02 91 1016.0
20260502091403 50 306 1.0 9.0 0.02 0.02 0.02 91 1016.9
20260502090903 50 200 3.0 9.0 0.02 0.02 0.02 90 1015.6
20260502071403 51 232 0.0 0.0 0.00 0.00 0.00 86 1016.5
20260502070903 51 232 0.0 0.0 0.00 0.00 0.00 86 1016.4
20260502070403 51 231 0.0 0.0 0.00 0.00 0.00 85 1016.5
20260502065903 51 229 0.0 0.0 0.00 0.00 0.00 85 1016.4
20260502065404 51 227 0.0 0.0 0.00 0.00 0.00 85 1016.4
20260502064903 51 223 0.0 0.0 0.00 0.00 0.00 84 1016.5
20260502064404 51 223 0.0 0.0 0.00 0.00 0.00 84 1016.5
20260502063903 52 223 0.0 0.0 0.00 0.00 0.00 84 1016.4
20260502063403 52 226 0.0 2.0 0.00 0.00 0.00 84 1016.4
20260502062903 52 227 0.0 2.0 0.00 0.00 0.00 83 1016.3
20260502062404 52 231 0.0 1.0 0.00 0.00 0.00 83 1016.4
20260502061903 52 270 0.0 1.0 0.00 0.00 0.00 83 1016.3
20260502061404 52 202 0.0 0.0 0.00 0.00 0.00 82 1016.2
20260502060903 52 294 0.0 0.0 0.00 0.00 0.00 82 1016.3
20260502060403 53 184 0.0 0.0 0.00 0.00 0.00 82 1016.3
20260502055904 53 280 0.0 0.0 0.00 0.00 0.00 81 1016.2
20260502054903 53 223 0.0 0.0 0.00 0.00 0.00 80 1016.4
20260502054404 53 214 0.0 0.0 0.00 0.00 0.00 80 1016.3
20260502052903 54 255 0.0 1.0 0.00 0.00 0.00 79 1016.1
20260502052403 54 285 0.0 1.0 0.00 0.00 0.00 78 1016.1
20260502051903 54 279 0.0 7.0 0.00 0.00 0.00 78 1015.8
20260502051403 54 345 0.0 7.0 0.00 0.00 0.00 77 1015.9
20260502050403 55 208 0.0 2.0 0.00 0.00 0.00 77 1015.9
20260502045903 55 291 0.0 2.0 0.00 0.00 0.00 76 1015.7
20260502045403 55 290 0.0 0.0 0.00 0.00 0.00 76 1015.8
20260502044904 56 226 0.0 1.0 0.00 0.00 0.00 75 1015.8
20260502044403 56 238 0.0 1.0 0.00 0.00 0.00 75 1015.7
20260502043904 56 227 0.0 3.0 0.00 0.00 0.00 75 1015.6
20260502043403 57 266 0.0 3.0 0.00 0.00 0.00 75 1015.5
20260502042403 57 272 0.0 5.0 0.00 0.00 0.00 75 1015.4
20260502041903 57 242 1.0 5.0 0.00 0.00 0.00 74 1015.3
20260502041404 58 237 0.0 5.0 0.00 0.00 0.00 74 1015.3
20260502040903 58 302 0.0 5.0 0.00 0.00 0.00 73 1015.1
20260502040404 58 253 0.0 6.0 0.00 0.00 0.00 74 1015.1
20260502034903 59 185 0.0 3.0 0.00 0.00 0.00 72 1015.1
20260502034403 59 261 1.0 3.0 0.00 0.00 0.00 71 1014.9
20260502033904 60 298 0.0 2.0 0.00 0.00 0.00 71 1015.0
20260502033403 60 274 0.0 3.0 0.00 0.00 0.00 70 1014.9
20260502032903 61 271 1.0 3.0 0.00 0.00 0.00 69 1014.9
20260502032403 61 259 0.0 2.0 0.00 0.00 0.00 68 1014.8
20260502031904 61 259 0.0 2.0 0.00 0.00 0.00 68 1014.8
20260502031404 62 199 0.0 6.0 0.00 0.00 0.00 68 1014.8
20260502030903 62 24 0.0 6.0 0.00 0.00 0.00 67 1014.6
20260502030403 63 296 0.0 6.0 0.00 0.00 0.00 67 1014.5
20260502025903 63 88 1.0 6.0 0.00 0.00 0.00 66 1014.5
20260502025403 63 296 0.0 2.0 0.00 0.00 0.00 66 1014.3
20260502024903 64 245 0.0 0.0 0.00 0.00 0.00 67 1014.3
20260502023904 64 129 0.0 6.0 0.00 0.00 0.00 65 1014.2
20260502023403 65 0 1.0 6.0 0.00 0.00 0.00 63 1014.2
20260502022903 66 105 0.0 3.0 0.00 0.00 0.00 64 1014.1
20260502022404 66 305 0.0 2.0 0.00 0.00 0.00 65 1014.0
20260502021903 66 248 1.0 2.0 0.00 0.00 0.00 63 1014.0
20260502021403 67 295 0.0 5.0 0.00 0.00 0.00 62 1013.9
20260502020403 68 336 1.0 5.0 0.00 0.00 0.00 59 1013.9
20260502015904 68 155 0.0 5.0 0.00 0.00 0.00 58 1013.9
20260502014904 69 193 0.0 2.0 0.00 0.00 0.00 55 1013.9
20260502014404 69 112 0.0 5.0 0.00 0.00 0.00 56 1013.9